SCP
0 0 0 0 0 0 0 0 0 0 0 0 0 0 0 0 0 0 0 0 0 0 0 0 0 0 0 0 0 0 0 0 0 0 0 0 0 0
0 0 0 0 0 0 0 0 0 0 0 0 0 0 0 0 0 0 0 0 0 0 0 0 0 0 0 0 0 0 0 0 0 0 0 0 0 0
0 0 0 0 0 0 0 0 0 0 0 0 0 0 0 0 0 0 0 0 0 0 0 0 0 0 0 0 0 0 0 0 0 0 0 0 0 0
0 0 0 0 0 0 0 0 0 0 0 0 0 0 0 0 0 0 0 0 0 0 0 0 0 0 0 0 0 0 0 0 0 0 0 0 0 0
0 0 0 0 0 0 0 0 0 0 0 0 0 0 0 0 0 0 0 0 0 0 0 0 0 0 0 0 0 0 0 0 0 0 0 0 0 0
0 0 0 0 0 0 0 0 0 0 0 0 0 0 0 0 0 0 0 0 0 0 0 0 0 0 0 0 0 0 0 0 0 0 0 0 0 0
0 0 0 0 0 0 0 0 0 0 0 0 0 0 0 0 0 0 0 0 0 0 0 0 0 0 0 0 0 0 0 0 0 0 0 0 0 0
0 0 0 0 0 0 0 0 0 0 0 0 0 0 0 0 0 0 0 0 0 0 0 0 0 0 0 0 0 0 0 0 0 0 0 0 0 0
0 0 0 0 0 0 0 0 0 0 0 0 0 0 0 0 0 0 0 0 0 0 0 0 0 0 0 0 0 0 0 0 0 0 0 0 0 0
0 0 0 0 0 0 0 0 0 0 0 0 0 0 0 0 0 0 0 0 0 0 0 0 0 0 0 0 0 0 0 0 0 0 0 0 0 0
0 0 0 0 0 0 0 0 0 0 0 0 0 0 0 0 0 0 0 0 0 0 0 0 0 0 0 0 0 0 0 0 0 0 0 0 0 0
0 0 0 0 0 0 0 0 0 0 0 0 0 0 0 0 0 0 0 0 0 0 0 0 0 0 0 0 0 0 0 0 0 0 0 0 0 0
0 0 0 0 0 0 0 0 0 0 0 0 0 0 0 0 0 0 0 0 0 0 0 0 0 0 0 0 0 0 0 0 0 0 0 0 0 0
0 0 0 0 0 0 0 0 0 0 0 0 0 0 0 0 0 0 0 0 0 0 0 0 0 0 0 0 0 0 0 0 0 0 0 0 0 0
0 0 0 0 0 0 0 0 0 0 0 0 0 0 0 0 0 0 0 0 0 0 0 0 0 0 0 0 0 0 0 0 0 0 0 0 0 0
0 0 0 0 0 0 0 0 0 0 0 0 0 0 0 0 0 0 0 0 0 0 0 0 0 0 0 0 0 0 0 0 0 0 0 0 0 0
0 0 0 0 0 0 0 0 0 0 0 0 0 0 0 0 0 0 0 0 0 0 0 0 0 0 0 0 0 0 0 0 0 0 0 0 0 0
0 0 0 0 0 0 0 0 0 0 0 0 0 0 0 0 0 0 0 0 0 0 0 0 0 0 0 0 0 0 0 0 0 0 0 0 0 0
0 0 0 0 0 0 0 0 0 0 0 0 0 0 0 0 0 0 0 0 0 0 0 0 0 0 0 0 0 0 0 0 0 0 0 0 0 0
0 0 0 0 0 0 0 0 0 0 0 0 0 0 0 0 0 0 0 0 0 0 0 0 0 0 0 0 0 0 0 0 0 0 0 0 0 0
0 0 0 0 0 0 0 0 0 0 0 0 0 0 0 0 0 0 0 0 0 0 0 0 0 0 0 0 0 0 0 0 0 0 0 0 0 0
0 0 0 0 0 0 0 0 0 0 0 0 0 0 0 0 0 0 0 0 0 0 0 0 0 0 0 0 0 0 0 0 0 0 0 0 0 0
0 0 0 0 0 0 0 0 0 0 0 0 0 0 0 0 0 0 0 0 0 0 0 0 0 0 0 0 0 0 0 0 0 0 0 0 0 0
Wind_Speed
2 2 2 2 2 3 3 3 3 3 3 3 2 2 2 2 3 2 2 3 4 4 3 3 3 4 4 4 4 4 4 4 5 5 6 7 8 9
1 1 2 2 2 2 2 3 3 3 3 2 2 2 3 2 2 2 2 3 4 4 3 3 3 4 4 5 5 5 5 5 5 5 6 7 7 9
1 1 2 2 2 2 2 2 2 3 3 3 2 1 2 2 1 1 1 1 1 3 3 3 4 4 4 5 5 5 6 6 6 6 7 7 7 8
1 1 2 2 2 2 2 2 2 2 3 3 2 1 2 2 1 1 1 1 1 1 3 3 3 3 4 4 5 6 6 6 6 7 7 7 7 8
1 1 2 2 3 2 2 2 2 2 2 2 2 1 1 1 1 1 1 1 1 1 2 3 3 3 4 5 5 5 6 6 6 7 7 7 8 8
1 1 2 2 2 3 2 2 2 2 2 2 2 2 1 1 1 1 1 1 1 1 1 1 2 3 4 4 5 6 6 7 7 7 7 8 8 8
2 2 2 2 3 2 2 2 2 2 2 1 2 1 1 1 1 1 1 1 1 1 1 2 2 2 3 4 5 6 7 7 7 8 8 8 8 8
2 2 2 2 3 3 3 2 2 2 2 2 2 2 3 2 1 1 1 1 2 1 1 2 2 3 3 3 5 7 7 8 8 9 9 9 9 9
1 2 2 2 3 3 2 2 2 2 3 3 3 3 3 3 2 2 2 2 3 1 1 2 2 3 3 4 7 8 8 8 9 9 10 10 10 10
2 2 2 2 3 3 2 2 2 2 2 1 2 3 3 3 3 3 3 2 2 2 3 3 2 3 3 3 6 8 9 9 9 10 10 10 11 11
2 2 1 2 3 2 2 2 3 3 2 1 2 3 3 4 3 2 2 2 2 2 3 2 2 2 2 3 4 7 8 9 10 10 10 10 10 9
2 2 2 2 3 2 1 1 2 3 3 3 3 3 2 3 4 4 3 3 2 3 3 3 2 1 2 2 2 3 4 7 9 10 10 11 10 7
2 2 3 4 4 3 2 2 4 4 3 3 3 3 3 2 3 4 5 4 4 4 3 4 3 2 2 2 2 2 3 3 4 5 9 11 11 10
2 2 3 5 5 5 3 3 4 3 2 2 2 3 3 3 3 4 5 6 6 7 5 5 3 3 3 3 3 2 2 3 4 4 4 6 9 12
2 4 5 6 5 4 3 4 3 2 2 2 3 3 3 4 3 3 3 4 5 6 6 6 5 4 4 4 3 3 2 3 4 4 4 5 5 5
2 3 4 4 3 3 3 3 2 2 2 3 3 3 3 3 3 2 2 2 2 3 4 6 7 6 5 5 4 4 4 3 3 4 3 4 4 6
1 1 2 2 3 3 3 3 3 2 3 3 3 3 3 3 3 2 2 2 3 3 3 2 4 5 6 5 4 5 5 4 4 4 3 4 5 6
1 1 2 3 3 4 4 4 3 3 3 3 4 4 4 4 4 3 3 3 4 4 4 3 2 2 3 5 8 7 5 5 4 4 4 4 5 5
1 2 3 4 4 4 4 4 4 4 3 4 4 4 4 4 4 4 3 4 4 5 4 4 3 3 4 5 4 8 6 4 4 4 5 5 6 6
2 3 4 4 5 5 5 4 4 4 4 4 4 4 4 4 4 4 4 4 4 4 4 4 4 5 6 5 4 4 8 7 5 5 5 4 4 5
3 4 4 5 5 5 5 5 5 5 5 4 4 5 4 4 4 4 4 5 5 5 5 5 5 5 4 3 4 4 4 7 7 5 4 4 4 4
4 4 5 5 5 5 5 5 5 5 5 5 5 5 4 4 5 5 5 5 5 5 6 5 4 3 4 5 6 6 5 4 6 9 9 8 5 5
4 4 4 4 4 4 4 5 5 5 4 4 5 4 4 4 4 5 5 5 5 6 5 5 4 3 4 5 5 5 7 6 4 3 5 8 11 11
Wind_Direction
247 244 247 253 241 229 224 218 223 257 267 254 255 279 282 262 241 226 215 202 201 201 205 215 218 213 213 212 207 200 199 199 198 196 196 197 194 196
257 257 264 269 266 242 228 227 226 232 256 258 245 283 297 291 254 231 217 201 205 203 206 215 217 219 215 208 202 198 197 203 206 202 196 197 198 192
296 271 288 290 283 274 244 227 227 223 248 271 259 279 287 288 290 263 227 219 213 211 216 217 218 219 216 213 212 208 207 207 204 201 200 199 194 189
300 307 304 304 298 287 270 256 245 230 228 257 269 266 268 277 273 243 236 236 240 224 219 215 218 221 221 221 221 217 213 207 204 201 198 193 191 188
283 294 301 305 297 289 277 273 264 250 223 228 256 255 265 287 306 288 255 268 245 217 207 211 216 221 222 220 219 213 206 203 204 199 194 194 191 188
295 282 286 294 283 280 275 273 264 254 236 228 251 262 253 257 237 261 269 246 239 229 237 230 223 228 226 219 218 212 207 205 203 202 199 196 190 187
335 323 302 311 310 296 276 265 254 249 248 243 251 259 244 221 231 240 247 263 263 227 240 245 233 233 230 226 222 215 211 206 203 201 198 196 193 190
330 329 325 334 331 318 300 267 249 237 237 234 237 242 248 235 223 216 230 245 264 211 213 253 224 238 239 231 223 215 214 210 205 203 201 200 199 199
281 307 330 340 338 335 341 333 325 302 247 231 236 242 243 231 213 219 219 225 243 237 214 257 234 245 245 235 219 216 215 213 209 206 205 205 204 204
278 279 294 320 336 348 351 354 350 344 315 259 249 260 258 246 228 227 227 240 257 242 210 245 244 250 260 243 221 217 216 214 211 209 207 207 206 206
309 297 288 303 320 348 1 354 344 335 338 316 267 267 259 244 224 202 198 210 251 244 200 223 246 256 259 252 230 218 216 213 212 211 208 208 206 206
322 312 293 298 310 326 324 313 311 310 324 332 329 313 281 244 218 214 206 210 229 245 202 200 218 231 266 248 236 221 217 217 215 215 212 210 203 203
303 311 311 314 312 307 288 261 261 275 295 300 304 306 298 271 241 222 213 214 222 238 208 191 205 204 228 266 263 233 220 217 210 215 215 212 203 198
265 283 294 305 306 304 293 270 273 280 278 288 289 289 284 276 264 246 230 225 230 240 226 196 214 205 208 236 257 243 228 220 213 216 212 204 208 207
257 272 289 300 306 308 297 292 292 273 266 274 278 275 269 271 271 262 245 232 235 237 229 212 213 211 211 226 240 240 248 239 216 213 211 208 208 199
293 301 308 302 299 291 299 302 283 261 258 266 274 276 279 277 269 257 254 249 250 254 230 218 216 210 218 223 229 244 235 231 223 216 215 225 220 213
305 314 327 327 327 323 313 304 293 277 261 258 261 272 279 281 275 259 246 246 242 257 263 232 218 219 226 227 232 238 238 237 233 222 211 234 239 226
250 286 300 299 298 299 303 304 294 283 274 266 261 257 265 272 275 266 247 246 247 251 254 251 235 223 228 232 220 235 239 239 240 223 215 229 249 241
214 263 276 282 286 287 285 284 287 287 284 279 271 264 262 262 261 262 256 251 249 251 252 239 223 228 252 268 246 211 221 237 235 237 228 224 240 247
240 262 273 277 279 281 282 280 282 287 278 274 272 264 258 260 262 263 260 257 259 257 255 243 229 225 234 254 264 247 214 220 229 240 247 243 251 260
270 267 269 273 275 275 275 275 276 281 283 282 280 273 264 258 259 261 264 265 263 262 261 259 251 235 234 236 248 250 241 217 213 225 237 247 256 252
277 278 278 278 279 280 280 280 280 280 284 280 277 277 267 254 257 260 261 262 258 259 262 267 266 238 214 229 252 263 266 259 233 226 226 222 229 239
278 280 283 285 282 280 282 283 283 285 284 283 282 281 278 268 260 256 256 257 261 262 263 263 258 240 240 243 252 260 262 263 259 251 252 241 233 245